Change the Weather History Date:

Saturday, March 15, 2014

  Actual Average Record
Temperature  
Mean Temperature 47 °F 44 °F  
Max Temperature 52 °F 51 °F 62 °F (1988)
Min Temperature 42 °F 37 °F 24 °F (1985)
Degree Days  
Heating Degree Days 18 21  
Month to date heating degree days 274 323  
Since 1 July heating degree days 3468 4168  
Cooling Degree Days 0 0  
Month to date cooling degree days 0 0  
Year to date cooling degree days 0 0  
Moisture  
Dew Point 47 °F    
Average Humidity 92    
Maximum Humidity 100    
Minimum Humidity 83    
Precipitation  
Precipitation 1.95 in 0.36 in 4.00 in (1974)
Month to date precipitation 11.14 5.40  
Year to date precipitation 33.71 30.36  
Sea Level Pressure  
Sea Level Pressure 30.16 in    
Wind  
Wind Speed 10 mph (South)    
Max Wind Speed 22 mph    
Max Gust Speed 36 mph    
Visibility 3 miles    
Events Fog , Rain    
T = Trace of Precipitation, MM = Missing Value Source: NWS Daily Summary

Daily Weather History Graph

Daily Weather History Graph

Search for Another Location

Airport or City:

Trip Planner

Search our weather history database for the weather conditions in past years. The results will help you decide how hot, cold, wet, or windy it might be!

Date:

Astronomy

Mar. 15, 2014 Rise Set
Actual Time 7:31 AM PDT 7:23 PM PDT
Civil Twilight 7:00 AM PDT 7:54 PM PDT
Nautical Twilight 6:24 AM PDT 8:30 PM PDT
Astronomical Twilight 5:47 AM PDT 9:08 PM PDT
Moon 6:48 PM PDT (3/15) 6:48 AM PDT (3/15)
Length of Visible Light 12h 54m
Length of Day
11h 52m
Waxing Gibbous, 99% of the Moon is Illuminated
Mar 15
Waxing Gibbous
Mar 16
Full
Mar 23
Last Quarter
Mar 30
New
Apr 7
First Quarter

Hourly Weather History & Observations

Time (PDT) Temp. Windchill Dew Point Humidity Pressure Visibility Wind Dir Wind Speed Gust Speed Precip Events Conditions
12:53 AM 43.0 °F 39.5 °F 41.0 °F 93% 30.30 in 6.0 mi East 5.8 mph - N/A   Clear
1:53 AM 43.0 °F 38.8 °F 41.0 °F 93% 30.27 in 7.0 mi East 6.9 mph - N/A   Mostly Cloudy
2:53 AM 44.1 °F 41.5 °F 39.9 °F 85% 30.24 in 7.0 mi East 4.6 mph - N/A   Overcast
3:53 AM 43.0 °F 39.5 °F 41.0 °F 93% 30.24 in 7.0 mi ENE 5.8 mph - N/A   Mostly Cloudy
4:53 AM 43.0 °F 40.3 °F 39.9 °F 89% 30.21 in 7.0 mi East 4.6 mph - N/A   Overcast
5:53 AM 42.1 °F 40.2 °F 41.0 °F 96% 30.21 in 5.0 mi ENE 3.5 mph - 0.00 in Rain Light Rain
6:53 AM 42.1 °F - 41.0 °F 96% 30.19 in 6.0 mi Calm Calm - 0.01 in   Overcast
7:53 AM 45.0 °F 42.6 °F 39.9 °F 82% 30.18 in 6.0 mi SE 4.6 mph - 0.00 in Rain Light Rain
8:45 AM 46.0 °F 41.4 °F 42.1 °F 86% 30.18 in 1.8 mi SSE 9.2 mph 21.9 mph 0.01 in Rain Light Rain
8:53 AM 46.0 °F 39.9 °F 42.1 °F 86% 30.18 in 2.5 mi SSE 13.8 mph 24.2 mph 0.02 in Rain Light Rain
9:00 AM 46.0 °F 41.4 °F 42.1 °F 86% 30.17 in 5.0 mi SSE 9.2 mph 21.9 mph 0.00 in Rain Light Rain
9:53 AM 46.9 °F - 44.1 °F 90% 30.17 in 3.0 mi SSE 13.8 mph 20.7 mph 0.00 in   Overcast
10:43 AM 46.9 °F - 45.0 °F 93% 30.16 in 2.5 mi SSE 12.7 mph 26.5 mph 0.00 in Rain Light Rain
10:53 AM 48.0 °F - 45.0 °F 89% 30.16 in 2.5 mi SSE 12.7 mph 23.0 mph 0.00 in   Overcast
11:01 AM 48.0 °F - 46.0 °F 93% 30.15 in 3.0 mi SSE 13.8 mph 21.9 mph 0.00 in Rain Light Rain
11:22 AM 48.9 °F - 46.9 °F 93% 30.14 in 2.5 mi SSE 11.5 mph 26.5 mph 0.00 in   Overcast
11:51 AM 48.2 °F - 46.4 °F 93% 30.14 in 1.8 mi South 11.5 mph 23.0 mph 0.00 in Rain Light Rain
11:53 AM 48.9 °F - 46.9 °F 93% 30.14 in 1.8 mi SSE 12.7 mph 23.0 mph 0.00 in Rain Light Rain
12:18 PM 50.0 °F - 48.0 °F 93% 30.13 in 3.0 mi SSE 12.7 mph 24.2 mph 0.00 in   Overcast
12:53 PM 50.0 °F - 48.9 °F 96% 30.15 in 3.0 mi South 16.1 mph 27.6 mph 0.01 in   Overcast
1:06 PM 50.0 °F - 48.9 °F 96% 30.15 in 2.5 mi South 15.0 mph 27.6 mph N/A   Overcast
1:18 PM 50.0 °F - 48.9 °F 96% 30.15 in 4.0 mi South 16.1 mph 28.8 mph 0.00 in Rain Light Rain
1:33 PM 50.0 °F - 48.9 °F 96% 30.13 in 1.8 mi SSE 13.8 mph 35.7 mph 0.00 in Rain Light Rain
1:50 PM 50.0 °F - 50.0 °F 100% 30.13 in 3.0 mi South 18.4 mph 33.4 mph 0.01 in Rain Light Rain
1:53 PM 50.0 °F - 50.0 °F 100% 30.13 in 4.0 mi South 15.0 mph 33.4 mph 0.01 in Rain Light Rain
2:04 PM 50.0 °F - 50.0 °F 100% 30.12 in 1.8 mi South 13.8 mph 32.2 mph 0.01 in Rain Rain
2:08 PM 50.0 °F - 50.0 °F 100% 30.12 in 0.8 mi South 11.5 mph 31.1 mph 0.03 in Rain Heavy Rain
2:53 PM 50.0 °F - 50.0 °F 100% 30.14 in 0.5 mi South 15.0 mph 28.8 mph 0.40 in Fog , Rain Heavy Rain
3:22 PM 50.0 °F - 50.0 °F 100% 30.12 in 1.2 mi South 15.0 mph 26.5 mph 0.17 in Rain Heavy Rain
3:35 PM 50.0 °F - 50.0 °F 100% 30.12 in 0.5 mi South 16.1 mph 27.6 mph 0.26 in Fog , Rain Heavy Rain
3:53 PM 50.0 °F - 50.0 °F 100% 30.14 in 0.5 mi South 15.0 mph 31.1 mph 0.42 in Fog , Rain Heavy Rain
4:51 PM 50.0 °F - 50.0 °F 100% 30.12 in 1.0 mi South 13.8 mph 27.6 mph 0.40 in Rain Rain
4:53 PM 50.0 °F - 50.0 °F 100% 30.13 in 1.2 mi South 13.8 mph 27.6 mph 0.41 in Rain Rain
5:05 PM 50.0 °F - 50.0 °F 100% 30.11 in 1.5 mi South 15.0 mph 28.8 mph 0.03 in Rain Rain
5:25 PM 50.0 °F - 50.0 °F 100% 30.13 in 1.8 mi SSW 13.8 mph 29.9 mph 0.07 in Rain Rain
5:46 PM 50.0 °F - 50.0 °F 100% 30.13 in 0.8 mi SSW 10.4 mph 26.5 mph 0.13 in Rain Heavy Rain
5:53 PM 50.0 °F - 50.0 °F 100% 30.15 in 0.5 mi South 15.0 mph 26.5 mph 0.16 in Fog , Rain Rain
6:41 PM 50.0 °F - 50.0 °F 100% 30.16 in 1.2 mi SW 15.0 mph 24.2 mph 0.22 in Rain Rain
6:53 PM 50.0 °F - 50.0 °F 100% 30.16 in 1.5 mi SW 10.4 mph 20.7 mph 0.25 in Rain Light Rain
7:01 PM 50.0 °F - 50.0 °F 100% 30.14 in 2.5 mi SSW 11.5 mph 20.7 mph 0.02 in Rain Rain
7:13 PM 50.0 °F - 50.0 °F 100% 30.15 in 3.0 mi SSW 12.7 mph 19.6 mph 0.02 in Rain Light Rain
7:50 PM 50.0 °F - 50.0 °F 100% 30.15 in 2.0 mi SSW 8.1 mph - 0.06 in Rain Light Rain
7:53 PM 50.0 °F - 50.0 °F 100% 30.15 in 1.8 mi SSW 10.4 mph - 0.07 in Rain Light Rain
8:15 PM 50.0 °F - 50.0 °F 100% 30.16 in 3.0 mi SSW 10.4 mph 18.4 mph 0.04 in Rain Light Rain
8:29 PM 50.0 °F - 50.0 °F 100% 30.17 in 2.5 mi SW 11.5 mph - 0.06 in Rain Light Rain
8:43 PM 50.0 °F - 50.0 °F 100% 30.18 in 5.0 mi SW 10.4 mph - 0.08 in   Overcast
8:53 PM 50.0 °F - 50.0 °F 100% 30.20 in 4.0 mi SW 10.4 mph - 0.08 in Rain Light Rain
9:49 PM 50.0 °F - 50.0 °F 100% 30.17 in 4.0 mi South 5.8 mph - 0.01 in Rain Light Rain
9:53 PM 50.0 °F - 50.0 °F 100% 30.18 in 4.0 mi South 8.1 mph - 0.01 in Rain Light Rain
10:01 PM 50.0 °F - 50.0 °F 100% 30.18 in 4.0 mi South 6.9 mph - 0.00 in Rain Light Rain
10:09 PM 50.0 °F - 50.0 °F 100% 30.19 in 4.0 mi SSW 6.9 mph - 0.00 in   Overcast
10:53 PM 50.0 °F - 50.0 °F 100% 30.20 in 3.0 mi SSW 6.9 mph - 0.02 in Rain Light Rain
11:53 PM 50.0 °F - 50.0 °F 100% 30.22 in 5.0 mi SW 8.1 mph - 0.01 in   Overcast